Current weather by "City, St" or "zip code"  
 

Current Conditions: SCOTTSBLUFF

Clear


86.0 F

Last Updated on Jul 17 2024, 12:53 PM MDT
Humidity: 48%
Wind Speed: E 10.3 mph
Barometer 30.22 in
Dewpoint: 64.0 F
Visibility: 10.00 mi
Precip: --
Heat Index: 87.3 F
Wind Chill: NA
Current conditions at:

SCOTTSBLUFF (KBFF)

Lat: 41.87 Lon: 103.6

active severe weather and emergency alerts image weather storm and storm spotter reports image weather observation monitoring service image
Active
Alerts
Storm Reports Obs
Monitoring

Sign-up For Email & Text Message Weather Alert Notification Services



Advertise Here

Observation History for SCOTTSBLUFF


Time Wind
(mph)
Vis
(mi)
Weather Precip (in) Temperature (F) Relative
Humidity
Wind
Chill
(F)
Heat
Index
(F)
Pressure
Air Dwpt altimeter
(in)
sea level
(mb)
Rmks
12:53 PM MDT E 10.3 10.00 Clear -- 86.0 64.0 48% NA 87.3 30.22 1023.4
11:53 AM MDT E 12.8 10.00 Clear -- 82.9 63.0 51% NA 84.0 30.25 1024.1
10:53 AM MDT E 11.4 10.00 NULL -- 79.0 64.0 60% NA 79.3 30.25 1024.4
09:53 AM MDT 4.7 10.00 Clear -- 73.9 64.0 71% NA 74.3 30.26 1024.7
09:27 AM MDT 3.4 9.00 Partly Cloudy -- 72.0 63.0 73% NA 72.3 30.27 1025.1
08:53 AM MDT 0.0 8.00 Cloudy -- 68.0 63.0 84% NA NA 30.27 1025.1
07:53 AM MDT 4.7 10.00 Cloudy -- 66.9 63.0 87% NA NA 30.26 1024.7
07:25 AM MDT E 4.7 10.00 Cloudy -- 66.9 63.0 87% NA NA 30.25 1024.4
06:53 AM MDT E 4.7 10.00 Mostly Cloudy -- 64.9 62.1 90% NA NA 30.25 1024.4
05:53 AM MDT 0.0 8.00 Clear -- 63.0 61.0 93% NA NA 30.23 1023.7
04:53 AM MDT 0.0 10.00 Clear -- 63.0 61.0 93% NA NA 30.21 1023.0
03:53 AM MDT E 3.4 10.00 Mostly Clear -- 64.9 62.1 90% NA NA 30.20 1022.7
02:53 AM MDT 6.9 10.00 Clear -- 64.9 62.1 90% NA NA 30.19 1022.4
01:53 AM MDT E 6.9 10.00 Clear -- 66.0 62.1 87% NA NA 30.18 1022.0
12:53 AM MDT E 5.8 10.00 Clear -- 66.9 62.1 84% NA NA 30.18 1022.0
11:53 PM MDT 8.1 10.00 Clear -- 69.1 61.0 75% NA NA 30.18 1022.0
10:53 PM MDT E 9.2 10.00 Clear -- 72.0 57.9 61% NA 71.8 30.16 1021.3
09:53 PM MDT 8.1 10.00 Clear -- 72.0 59.0 64% NA 71.8 30.14 1020.7
08:53 PM MDT 8.1 10.00 Clear -- 73.9 57.0 56% NA 73.6 30.12 1019.7
07:53 PM MDT 9.2 10.00 Clear -- 82.0 54.0 38% NA 81.3 30.09 1019.0
06:53 PM MDT 12.8 10.00 Mostly Clear -- 86.0 53.1 32% NA 84.0 30.07 1018.3
05:53 PM MDT 12.8 10.00 Clear -- 93.0 50.0 23% NA 90.0 30.05 1017.6
04:53 PM MDT NE 9.2 10.00 Mostly Clear -- 93.0 51.1 24% NA 90.1 30.05 1017.6
03:53 PM MDT E 11.4 10.00 Clear -- 91.9 50.0 24% NA 88.9 30.06 1018.0

Regional Weather Observation


SCOTTSBLUFF (KBFF)

Clear
86.0 F

TORRINGTON (KTOR)

Clear
88.0 F

(K1BW)


F

GUERNSEY (KGUR)

Partly Cloudy
87.8 F

FOXTROT MADIS (K1FW)

Mostly Clear
79.0 F

WHEATLAND (KEAN)

Clear
80.4 F

Advertise Here


Advertise Here